WLTO2: East Cache Creek Nr Walters, O

Data processed at Thu May 23 2019 23:50


All information presented herein is the property of the government of the United States of America and may be revised or deleted at any time without prior notice.
Dissemination of this information without the expressed written consent of the Public Affairs Office, Tulsa District U.S. Army Corps of Engineers is strictly prohibited.
These data are gathered electronically and, as presented, have not undergone any form of quality control. These data are not guaranteed to be valid or correct.
Go to home page.
Go to station list.
Go to home page.

Upstream stations:

Downstream station:
Previous Day
Next Day
Current Day
    
SHEF ID:       WLTO2     East Cache Creek near Walters, O
STATION TYPE:  
Regulating: Stage =    15.00, Flow =     1957

               PRECIP PRECIP(A)     STAGE  RIV-FLOW  BAT-LOAD
                   in        in        ft       cfs      volt
              Ccp-Rev   Ccp-Rev   Ccp-Rev   Ccp-Rev   Ccp-Rev
(US/Central)
05/23 00:00      0.00      ----     30.92     63262     12.41
05/23 01:00      0.00      ----     30.87     61660     12.41
05/23 02:00      0.00      ----     30.83     60404     12.33
05/23 03:00      0.00      ----     30.77     58561     12.33
05/23 04:00      0.00      ----     30.69     56179     12.33
05/23 05:00      0.00      ----     30.60     53598     12.33
05/23 06:00      0.00      ----     30.51     51121     12.33
05/23 07:00      0.00      ----     30.41     48484     12.25
05/23 08:00      0.00      ----     30.29     45474     12.33
05/23 09:00      0.00      ----     30.15     42167     12.41
05/23 10:00      0.00      ----     30.01     39068     12.57
05/23 11:00      0.00      ----     29.84     35570     13.13
05/23 12:00      0.00      ----     29.65     31983     13.13
05/23 13:00      0.00      ----     29.45     28546     13.60
05/23 14:00      0.00      ----     29.21     24845     12.81
05/23 15:00      0.00      ----     28.95     21308     13.05
05/23 16:00      0.00      ----     28.67     17991     13.05
05/23 17:00      0.00      ----     28.35     14753     12.73
05/23 18:00      0.00      ----     28.01     11873     12.65
05/23 19:00      0.00      ----     27.63      9457     12.65
05/23 20:00      0.00      ----     27.26      7974     12.57
05/23 21:00      0.00      ----     26.84      6548     12.49
05/23 22:00      0.00      ----     26.42      5358     12.41
05/23 23:00      0.00      ----     25.97      4993     12.41